RADUGA 2 [-]

Last updated on June 24, 2019, 3:40 a.m. UTC

1 09416U 76092A   19173.85017708 -.00000115  00000-0  00000-0 0  9999
2 09416   9.7138 304.9337 0027936 327.1651  22.6245  1.00246152103759
UTC
Height (km)
Latitude
Longitude
Inclination
Orbital Period
UTC large
Height (km)
Speed (km/s)
/
Latitude / Longitude
Inclination (degrees)
Orbital Period (minutes)
Azimuth
Elevation
Range (km)
Doppler Factor
iOS Compass Heading
iOS Angle

Next 30 passes for location: Hong Kong

Rise time Rise Azimuth (degrees) Set time Set Azimuth (degrees) Duration Max altitude (degrees)

No matching passes for this satellites